Ft Lauderdale, FL

4:57 AM EDT on May 28, 2017 (GMT -0400)
Fort Lauderdale-Hollywood International

Weather History for KFLL - November, 2011

Change the Weather History Date:

Tuesday, November 29, 2011

  Actual Average Record
Temperature  
Mean Temperature 70 °F 74 °F  
Max Temperature 78 °F 80 °F 90 °F (1958)
Min Temperature 62 °F 67 °F 35 °F (1950)
Degree Days  
Heating Degree Days 0 0  
Month to date heating degree days 0 0  
Since 1 July heating degree days 0 0  
Cooling Degree Days 5 9  
Month to date cooling degree days 315 310  
Year to date cooling degree days 4590 4504  
Growing Degree Days 21 (Base 50)    
Moisture  
Dew Point 58 °F    
Average Humidity 68    
Maximum Humidity 93    
Minimum Humidity 42    
Precipitation  
Precipitation T in 0.11 in 1.16 in (1995)
Month to date precipitation 0.42 3.14  
Year to date precipitation 39.29 59.62  
Snow  
Snow 0.00 in - - ()
Month to date snowfall 0.0  
Since 1 July snowfall 0.0  
Since 1 September snowfall 0.0  
Snow Depth 0.00 in    
Sea Level Pressure  
Sea Level Pressure 29.97 in    
Wind  
Wind Speed 9 mph (NW)    
Max Wind Speed 18 mph    
Max Gust Speed 38 mph    
Visibility 10 miles    
Events Rain    
T = Trace of Precipitation, MM = Missing Value Source: NWS Daily Summary

Daily Weather History Graph

Daily Weather History Graph

Search for Another Location

Airport or City:

Trip Planner

Search our weather history database for the weather conditions in past years. The results will help you decide how hot, cold, wet, or windy it might be!

Date:

Astronomy

Nov. 29, 2011 Rise Set
Actual Time 6:49 AM EST 5:28 PM EST
Civil Twilight 6:24 AM EST 5:53 PM EST
Nautical Twilight 5:55 AM EST 6:21 PM EST
Astronomical Twilight 5:27 AM EST 6:49 PM EST
Moon 10:43 AM EST (11/29) 10:08 PM EST (11/29)
Length of Visible Light 11h 29m
Length of Day
10h 39m
Waxing Crescent, 24% of the Moon is Illuminated
Nov 29
Waxing Crescent
Dec 2
First Quarter
Dec 10
Full
Dec 17
Last Quarter
Dec 24
New

Hourly Weather History & Observations

Time (EST) Temp. Dew Point Humidity Pressure Visibility Wind Dir Wind Speed Gust Speed Precip Events Conditions
12:33 AM 68.0 °F 64.4 °F 88% 29.93 in 10.0 mi NW 12.7 mph - N/A   Mostly Cloudy
12:53 AM 66.9 °F 64.0 °F 90% 29.93 in 10.0 mi NW 8.1 mph - 0.00 in Rain Light Rain
1:53 AM 66.9 °F 63.0 °F 87% 29.93 in 10.0 mi WNW 10.4 mph - 0.00 in   Scattered Clouds
2:11 AM 66.2 °F 62.6 °F 88% 29.93 in 10.0 mi NW 9.2 mph - N/A   Mostly Cloudy
2:53 AM 66.0 °F 63.0 °F 90% 29.93 in 10.0 mi WNW 12.7 mph - N/A   Overcast
3:34 AM 66.2 °F 60.8 °F 83% 29.94 in 10.0 mi NNW 15.0 mph 21.9 mph N/A   Overcast
3:45 AM 66.2 °F 60.8 °F 83% 29.95 in 10.0 mi NW 13.8 mph 20.7 mph N/A   Overcast
3:53 AM 66.0 °F 60.1 °F 81% 29.94 in 10.0 mi NW 16.1 mph - N/A   Mostly Cloudy
4:26 AM 64.4 °F 60.8 °F 88% 29.95 in 10.0 mi NW 12.7 mph 20.7 mph N/A   Overcast
4:53 AM 64.9 °F 60.1 °F 84% 29.95 in 10.0 mi NNW 10.4 mph - N/A   Overcast
4:58 AM 64.4 °F 60.8 °F 88% 29.95 in 10.0 mi NNW 12.7 mph - N/A   Overcast
5:53 AM 64.9 °F 59.0 °F 81% 29.96 in 10.0 mi North 10.4 mph - N/A   Overcast
6:53 AM 66.0 °F 59.0 °F 78% 29.97 in 10.0 mi North 8.1 mph - N/A   Overcast
7:53 AM 66.9 °F 57.9 °F 73% 29.99 in 10.0 mi North 5.8 mph - N/A   Overcast
8:53 AM 68.0 °F 57.9 °F 70% 30.01 in 10.0 mi North 4.6 mph - N/A   Overcast
9:53 AM 70.0 °F 55.0 °F 59% 30.02 in 10.0 mi NNW 8.1 mph - N/A   Overcast
10:53 AM 71.1 °F 54.0 °F 55% 30.01 in 10.0 mi WNW 8.1 mph - N/A   Overcast
11:53 AM 72.0 °F 55.0 °F 55% 29.99 in 10.0 mi NW 5.8 mph - N/A   Overcast
12:53 PM 73.0 °F 55.9 °F 55% 29.96 in 10.0 mi NW 8.1 mph - N/A   Overcast
1:53 PM 77.0 °F 55.0 °F 47% 29.93 in 10.0 mi WNW 11.5 mph - N/A   Partly Cloudy
2:53 PM 78.1 °F 54.0 °F 43% 29.92 in 10.0 mi West 10.4 mph 17.3 mph N/A   Clear
3:53 PM 77.0 °F 54.0 °F 45% 29.93 in 10.0 mi WNW 10.4 mph - N/A   Partly Cloudy
4:53 PM 75.0 °F 55.9 °F 51% 29.94 in 10.0 mi NW 9.2 mph - N/A   Partly Cloudy
5:53 PM 73.0 °F 55.9 °F 55% 29.95 in 10.0 mi NNW 6.9 mph - N/A   Scattered Clouds
6:53 PM 71.1 °F 55.9 °F 59% 29.98 in 10.0 mi NW 10.4 mph - N/A   Clear
7:53 PM 68.0 °F 54.0 °F 61% 30.00 in 10.0 mi NW 6.9 mph - N/A   Clear
8:53 PM 66.0 °F 53.1 °F 63% 30.01 in 10.0 mi NW 6.9 mph - N/A   Clear
9:53 PM 64.9 °F 51.1 °F 61% 30.02 in 10.0 mi NW 9.2 mph - N/A   Clear
10:53 PM 64.0 °F 51.1 °F 63% 30.03 in 10.0 mi NW 9.2 mph - N/A   Clear
11:53 PM 62.1 °F 52.0 °F 70% 30.03 in 10.0 mi NNW 6.9 mph - N/A   Clear